Sexton Summit, OR

3:55 PM PDT on October 22, 2017 (GMT -0700)
Sexton Summit

Weather History for KSXT - March, 2013

Change the Weather History Date:

Wednesday, March 27, 2013

  Actual Average Record
Temperature  
Mean Temperature 44 °F -  
Max Temperature 51 °F 44 °F 64 °F (2015)
Min Temperature 39 °F 31 °F 23 °F (2008)
Degree Days  
Heating Degree Days 20    
Moisture  
Dew Point 40 °F    
Average Humidity 90    
Maximum Humidity 100    
Minimum Humidity 71    
Precipitation  
Precipitation 0.12 in - - ()
Sea Level Pressure  
Sea Level Pressure 29.91 in    
Wind  
Wind Speed 6 mph (South)    
Max Wind Speed 13 mph    
Max Gust Speed 17 mph    
Visibility 5 miles    
Events Fog , Rain    
Averages and records for this station are not official NWS values.
T = Trace of Precipitation, MM = Missing Value Source: NWS Daily Summary

Daily Weather History Graph

Daily Weather History Graph

Search for Another Location

Airport or City:

Trip Planner

Search our weather history database for the weather conditions in past years. The results will help you decide how hot, cold, wet, or windy it might be!

Date:

Astronomy

Mar. 27, 2013 Rise Set
Actual Time 7:03 AM PDT 7:34 PM PDT
Civil Twilight 6:35 AM PDT 8:02 PM PDT
Nautical Twilight 6:02 AM PDT 8:36 PM PDT
Astronomical Twilight 5:27 AM PDT 9:10 PM PDT
Moon 8:26 PM PDT (3/27) 6:57 AM PDT (3/27)
Length of Visible Light 13h 26m
Length of Day
12h 30m
Full, 100% of the Moon is Illuminated
Mar 27
Full
Apr 2
Last Quarter
Apr 10
New
Apr 18
First Quarter
Apr 25
Full

Hourly Weather History & Observations

Time (PDT) Temp. Windchill Dew Point Humidity Pressure Visibility Wind Dir Wind Speed Gust Speed Precip Events Conditions
12:56 AM 41.0 °F 37.1 °F 36.0 °F 82% 29.92 in 10.0 mi SE 5.8 mph - 0.00 in Rain Light Rain
1:56 AM 41.0 °F 36.4 °F 36.0 °F 82% 29.90 in 10.0 mi SE 6.9 mph - 0.00 in   Overcast
2:56 AM 39.9 °F 34.5 °F 37.0 °F 89% 29.89 in 7.0 mi South 8.1 mph - 0.00 in Rain Light Rain
3:04 AM 39.2 °F 32.5 °F 37.4 °F 93% 29.89 in 6.0 mi SSE 10.4 mph - 0.01 in Rain Light Rain
3:11 AM 39.2 °F 31.6 °F 37.4 °F 93% 29.89 in 10.0 mi SE 12.7 mph - 0.01 in Rain Light Rain
3:56 AM 39.9 °F 33.9 °F 37.0 °F 89% 29.88 in 10.0 mi SE 9.2 mph - 0.01 in   Overcast
4:56 AM 39.9 °F 33.9 °F 37.0 °F 89% 29.87 in 10.0 mi SSE 9.2 mph - N/A   Overcast
5:47 AM 39.2 °F 35.0 °F 37.4 °F 93% 29.88 in 1.0 mi SSW 5.8 mph - N/A   Overcast
6:07 AM 41.0 °F 37.1 °F 37.4 °F 87% 29.88 in 10.0 mi South 5.8 mph - 0.00 in   Overcast
6:56 AM 39.0 °F 34.8 °F 37.0 °F 93% 29.89 in 6.0 mi South 5.8 mph - 0.01 in Rain Light Rain
7:56 AM 39.9 °F 33.9 °F 37.9 °F 93% 29.89 in 6.0 mi SSE 9.2 mph - 0.00 in Rain Light Rain
8:07 AM 39.2 °F 33.6 °F 37.4 °F 93% 29.88 in 0.5 mi South 8.1 mph - 0.01 in Fog , Rain Light Rain
8:14 AM 39.2 °F 33.0 °F 37.4 °F 93% 29.89 in 1.8 mi South 9.2 mph - 0.02 in Rain Rain
8:18 AM 39.2 °F 33.6 °F 37.4 °F 93% 29.89 in 3.0 mi South 8.1 mph - 0.03 in Rain Light Rain
8:26 AM 39.2 °F 34.2 °F 37.4 °F 93% 29.89 in 0.8 mi South 6.9 mph - 0.03 in Rain Light Rain
8:34 AM 39.2 °F 35.0 °F 39.2 °F 100% 29.89 in 0.2 mi South 5.8 mph - 0.03 in Fog , Rain Light Rain
8:56 AM 41.0 °F 38.0 °F 39.0 °F 93% 29.90 in 0.2 mi South 4.6 mph - 0.03 in Fog , Rain Light Rain
9:23 AM 41.0 °F 37.1 °F 39.2 °F 93% 29.89 in 1.2 mi South 5.8 mph - 0.01 in Rain Light Rain
9:25 AM 41.0 °F 37.1 °F 39.2 °F 93% 29.89 in 3.0 mi South 5.8 mph - 0.01 in Rain Light Rain
9:27 AM 41.0 °F 38.0 °F 39.2 °F 93% 29.89 in 1.8 mi South 4.6 mph - 0.01 in Rain Light Rain
9:29 AM 41.0 °F 37.1 °F 39.2 °F 93% 29.89 in 0.5 mi SSE 5.8 mph - 0.01 in Fog , Rain Light Rain
9:31 AM 41.0 °F 38.0 °F 39.2 °F 93% 29.89 in 0.2 mi SSE 4.6 mph - 0.01 in Fog , Rain Light Rain
9:44 AM 41.0 °F 35.8 °F 39.2 °F 93% 29.90 in 0.2 mi South 8.1 mph - 0.01 in Fog , Rain Light Rain
9:56 AM 41.0 °F 37.1 °F 39.9 °F 96% 29.90 in 0.2 mi SSE 5.8 mph - 0.01 in Fog , Rain Light Rain
10:26 AM 42.8 °F 40.1 °F 42.8 °F 100% 29.90 in 1.0 mi Variable 4.6 mph - 0.01 in   Overcast
10:29 AM 42.8 °F 37.5 °F 42.8 °F 100% 29.90 in 2.0 mi South 9.2 mph - 0.01 in   Overcast
10:33 AM 42.8 °F 38.6 °F 41.0 °F 93% 29.90 in 1.0 mi South 6.9 mph - 0.01 in   Overcast
10:36 AM 42.8 °F 38.0 °F 41.0 °F 93% 29.90 in 0.8 mi SSE 8.1 mph - 0.01 in   Overcast
10:44 AM 44.6 °F 41.4 °F 42.8 °F 93% 29.90 in 1.5 mi SE 5.8 mph - 0.01 in   Overcast
10:50 AM 42.8 °F 39.3 °F 41.0 °F 93% 29.90 in 0.8 mi South 5.8 mph - 0.01 in   Overcast
10:56 AM 44.1 °F 40.8 °F 42.1 °F 93% 29.90 in 0.8 mi South 5.8 mph - 0.01 in   Overcast
11:07 AM 44.6 °F 41.4 °F 42.8 °F 93% 29.91 in 10.0 mi South 5.8 mph - N/A   Overcast
11:32 AM 42.8 °F 39.3 °F 41.0 °F 93% 29.91 in 1.2 mi Variable 5.8 mph - 0.00 in Rain Light Rain
11:36 AM 42.8 °F 38.6 °F 41.0 °F 93% 29.91 in 0.2 mi SSW 6.9 mph - 0.00 in Fog , Rain Light Rain
11:56 AM 42.1 °F 38.4 °F 41.0 °F 96% 29.92 in 0.2 mi SW 5.8 mph - 0.00 in Fog , Rain Light Rain
11:59 AM 42.8 °F 41.1 °F 41.0 °F 93% 29.92 in 0.8 mi Variable 3.5 mph - 0.00 in Rain Light Rain
12:03 PM 42.8 °F 38.6 °F 41.0 °F 93% 29.92 in 1.0 mi South 6.9 mph - 0.00 in   Overcast
12:11 PM 42.8 °F 39.3 °F 41.0 °F 93% 29.92 in 0.8 mi Variable 5.8 mph - 0.00 in Rain Light Rain
12:19 PM 42.8 °F 38.6 °F 39.2 °F 87% 29.92 in 0.5 mi South 6.9 mph - 0.00 in Fog , Rain Light Rain
12:27 PM 42.8 °F 38.6 °F 39.2 °F 87% 29.92 in 0.2 mi South 6.9 mph - 0.00 in Fog Fog
12:31 PM 42.8 °F 39.3 °F 39.2 °F 87% 29.92 in 0.2 mi South 5.8 mph - 0.00 in Fog Fog
12:38 PM 42.8 °F 38.6 °F 41.0 °F 93% 29.92 in 1.2 mi South 6.9 mph - 0.00 in   Overcast
12:40 PM 44.6 °F 41.4 °F 42.8 °F 93% 29.92 in 4.0 mi Variable 5.8 mph - 0.00 in   Overcast
12:56 PM 44.1 °F 40.8 °F 41.0 °F 89% 29.91 in 10.0 mi SW 5.8 mph - 0.00 in   Scattered Clouds
1:11 PM 44.6 °F - 41.0 °F 87% 29.92 in 10.0 mi Calm Calm - N/A   Mostly Cloudy
1:22 PM 44.6 °F 43.1 °F 41.0 °F 87% 29.91 in 10.0 mi Variable 3.5 mph - N/A   Mostly Cloudy
1:33 PM 44.6 °F - 41.0 °F 87% 29.91 in 10.0 mi Calm Calm - N/A   Mostly Cloudy
1:56 PM 48.9 °F - 41.0 °F 74% 29.90 in 10.0 mi Variable 4.6 mph - N/A   Mostly Cloudy
2:46 PM 50.0 °F - 41.0 °F 71% 29.91 in 10.0 mi South 5.8 mph - 0.00 in Rain Light Rain
2:56 PM 48.0 °F - 41.0 °F 77% 29.90 in 10.0 mi SSW 8.1 mph - 0.00 in   Overcast
3:29 PM 50.0 °F - 41.0 °F 71% 29.91 in 10.0 mi South 8.1 mph 17.3 mph N/A   Mostly Cloudy
3:37 PM 46.4 °F 44.3 °F 41.0 °F 81% 29.91 in 10.0 mi Variable 4.6 mph - N/A   Mostly Cloudy
3:56 PM 44.1 °F 40.8 °F 42.1 °F 93% 29.92 in 2.5 mi Variable 5.8 mph - 0.01 in Rain Light Rain
4:13 PM 44.6 °F 41.4 °F 42.8 °F 93% 29.92 in 5.0 mi Variable 5.8 mph - 0.04 in Rain Light Rain
4:56 PM 45.0 °F - 43.0 °F 93% 29.92 in 10.0 mi Calm Calm - 0.04 in   Overcast
5:38 PM 44.6 °F - 42.8 °F 93% 29.92 in 10.0 mi Calm Calm - 0.00 in Rain Light Rain
5:54 PM 44.6 °F 43.1 °F 41.0 °F 87% 29.92 in 10.0 mi Variable 3.5 mph - 0.00 in   Overcast
5:56 PM 45.0 °F - 41.0 °F 86% 29.93 in 10.0 mi Calm Calm - 0.00 in   Overcast
6:25 PM 42.8 °F 40.1 °F 41.0 °F 93% 29.92 in 10.0 mi WNW 4.6 mph - N/A   Mostly Cloudy
6:56 PM 42.1 °F 39.2 °F 39.0 °F 89% 29.94 in 10.0 mi NW 4.6 mph - N/A   Mostly Cloudy
7:56 PM 42.1 °F 40.2 °F 37.9 °F 85% 29.95 in 10.0 mi Variable 3.5 mph - N/A   Overcast
8:56 PM 41.0 °F 38.0 °F 37.9 °F 89% 29.96 in 10.0 mi NW 4.6 mph - N/A   Overcast
9:56 PM 41.0 °F 39.0 °F 37.9 °F 89% 29.97 in 10.0 mi WNW 3.5 mph - N/A   Overcast
10:56 PM 42.1 °F - 37.9 °F 85% 29.96 in 10.0 mi Calm Calm - N/A   Overcast
11:56 PM 41.0 °F - 37.9 °F 89% 29.97 in 10.0 mi Calm Calm - N/A   Overcast